Miscellaneous Local Product
Issued by NWS North Platte, NE

Home | Current Version | Previous Version | Text Only | Print | Product List | Glossary On
Versions: 1 2 3 4 5 6 7 8 9 10 11 12 13 14 15 16 17 18 19 20 21 22 23 24 25 26 27 28 29 30 31 32 33 34 35 36 37 38 39 40 41 42 43 44 45 46 47 48 49 50
624
AXUS43 KLBF 240410
MISLBF


WESTERN AND NORTH CENTRAL NEBRASKA HOURLY WEATHER ROUNDUP
NATIONAL WEATHER SERVICE NORTH PLATTE NE
1100 PM CDT MON MAY 23 2016

NOTE: "FAIR" INDICATES FEW OR NO CLOUDS BELOW 12,000 FEET WITH NO
SIGNIFICANT WEATHER AND/OR OBSTRUCTIONS TO VISIBILITY.

NOTE: STATIONS NOT REPORTING VARIABLES SUCH AS SKY/WEATHER OR
PRESSURE ARE PROVIDED BY RAWS AND APRS NETWORKS AND ARE NOT UNDER
NATIONAL WEATHER SERVICE QUALITY CONTROL.

...OBSERVATIONS IN AND NEAR THE EASTERN PANHANDLE OF NEBRASKA...

CITY           SKY/WX    TMP DP  RH WIND       PRES   REMARKS
PINE RIDGE     CLEAR     57  38  48 S16       29.83R
CHADRON        PTCLDY    54  41  61 SW13      29.85R
ALLIANCE       CLEAR     44  42  93 CALM      29.87R
SIDNEY         MOCLDY    47  42  83 S3        29.92R
CRESCENT LAKE    N/A     51  43  75 CALM        N/A
BIG SPRINGS      N/A     57  44  62 N3          N/A
$$

...OBSERVATIONS IN NORTHERN NEBRASKA AND FAR SOUTHERN SOUTH DAKOTA...

CITY           SKY/WX    TMP DP  RH WIND       PRES   REMARKS
WINNER         FAIR      63  49  60 SW5       29.77R
VALENTINE      MOCLDY    66  37  34 W12       29.80R
THEDFORD       CLEAR     59  45  60 NW6       29.85S
AINSWORTH      PTCLDY    64  42  43 W6        29.81R
O`NEILL        CLEAR     64  56  76 S6        29.79R
ORD            CLEAR     63  59  87 S5        29.79R
BROKEN BOW     CLEAR     58  47  66 CALM      29.82R
BUTTE            N/A     68  49  50 SE3         N/A
CHAMBERS         N/A     64  61  90 SW3         N/A
EWING            N/A     65  62  91 SW3         N/A
$$

...OBSERVATIONS IN SOUTHWEST NEBRASKA AND FAR NORTHEAST COLORADO...

CITY           SKY/WX    TMP DP  RH WIND       PRES   REMARKS
WRAY           FAIR      52  45  76 N13       29.89R
HOLYOKE        FAIR      54  46  76 NE9       29.89F
IMPERIAL       CLEAR     56  44  64 NW14      29.89R
OGALLALA       DRIZZLE   56  43  62 E9        29.88R
NORTH PLATTE   CLEAR     55  45  68 NW9       29.85R
MCCOOK         PTCLDY    63  49  60 N3        29.82R
LEXINGTON      CLEAR     62  56  78 CALM      29.83R
PAXTON           N/A     62  47  58 NW10        N/A
STAPLETON        N/A     57  46  68 CALM        N/A
GOTHENBURG       N/A     68  43  40 CALM        N/A
CALLAWAY         N/A     63  43  48 NW6         N/A
$$

...OBSERVATIONS IN CENTRAL LINCOLN COUNTY AREA...

CITY           SKY/WX    TMP DP  RH WIND       PRES   REMARKS
N.P. AIRPORT   CLEAR     55  45  68 NW9       29.85R
N.P. DOWNTOWN    N/A     60  46  60 NW5         N/A
N.P. SOUTHEAST   N/A     60  45  58 NW3         N/A
N.P. HILLCREST   N/A     59  46  63 N12         N/A
$$

...SOME OBSERVATIONS FROM AROUND THE REGION...

CITY           SKY/WX    TMP DP  RH WIND       PRES   REMARKS
DENVER         PTCLDY    53  42  66 SE5       29.95R
LARAMIE        CLOUDY    43  30  60 NE5       30.00R
CHEYENNE       CLEAR     48  38  68 W6        29.96R
SCOTTSBLUFF    CLEAR     46  43  89 N7        29.89R
RAPID CITY     CLEAR     50  31  48 W5        29.78R
BISMARCK       CLOUDY    60  49  66 NE6       29.77R
PIERRE         PTCLDY    62  47  57 CALM      29.71R
SIOUX FALLS    CLOUDY    65  62  90 S8        29.77S
OMAHA          CLOUDY    68  62  81 S8        29.83R
GRAND ISLAND   MOCLDY    60  59  96 S6        29.81R
KANSAS CITY    CLOUDY    62  59  90 S8        29.89R
WICHITA        CLOUDY    69  65  86 S14       29.85R
OKLAHOMA CITY  CLOUDY    71  69  93 S13       29.88R
DALLAS         CLOUDY    78  70  76 SE10      29.89R
AMARILLO       CLEAR     70  64  81 SE21      29.84R
DODGE CITY     PTCLDY    69  65  86 S22G29    29.79R
HAYS           CLOUDY    72  63  73 S15       29.80R
GOODLAND       CLEAR     57  50  77 E7        29.84R
$$




USA.gov is the U.S. government's official web portal to all federal, state and local government web resources and services.